DAL1997 KATL-MKJS

Flight info

Callsign DAL1997
Flight time 2h 6m
Altitude 35000
Route VRSTY3 NOKIE DCT YANTI Q89 SHRKS DCT DEBRL Q97 TOVAR Y297 URSUS UL780 TASNO UM221 NIBEO DCT RILDE
Aircraft A320/M-SDE3FGHIRWY/LB1

Departure

Time 2026-05-05 13:39
Airport Hartsfield Jackson Atlanta International Airport (KATL)

Arrival

Time 2026-05-05 15:45
Airport Sangster International Airport (MKJS)
Time Latitude Longitude Altitude Speed Heading
2026-05-05 12:47 33.63885 -84.42512 1007 ft 0 kts 270°
2026-05-05 13:28 33.63885 -84.42511 1006 ft 2 kts 270°
2026-05-05 13:28 33.63885 -84.42481 1006 ft 4 kts 270°
2026-05-05 13:28 33.63887 -84.42448 1006 ft 4 kts 252°
2026-05-05 13:28 33.63899 -84.42422 1006 ft 4 kts 212°
2026-05-05 13:29 33.63915 -84.42416 1006 ft 1 kts 182°
2026-05-05 13:29 33.63917 -84.42416 1006 ft 0 kts 182°
2026-05-05 13:32 33.63916 -84.42416 1006 ft 2 kts 182°
2026-05-05 13:32 33.63880 -84.42416 1006 ft 5 kts 179°
2026-05-05 13:32 33.63849 -84.42416 1006 ft 4 kts 180°
2026-05-05 13:33 33.63821 -84.42417 1006 ft 6 kts 181°
2026-05-05 13:33 33.63766 -84.42417 1006 ft 9 kts 181°
2026-05-05 13:33 33.63712 -84.42418 1006 ft 7 kts 181°
2026-05-05 13:33 33.63658 -84.42388 1007 ft 15 kts 118°
2026-05-05 13:34 33.63655 -84.42224 1007 ft 21 kts 90°
2026-05-05 13:34 33.63655 -84.42045 1007 ft 22 kts 90°
2026-05-05 13:34 33.63654 -84.41862 1006 ft 22 kts 90°
2026-05-05 13:34 33.63655 -84.41731 1006 ft 23 kts 90°
2026-05-05 13:35 33.63655 -84.41534 1006 ft 24 kts 89°
2026-05-05 13:35 33.63655 -84.41345 1006 ft 23 kts 90°
2026-05-05 13:35 33.63655 -84.41157 1006 ft 21 kts 91°
2026-05-05 13:35 33.63654 -84.41010 1006 ft 16 kts 90°
2026-05-05 13:36 33.63626 -84.40912 1006 ft 12 kts 159°
2026-05-05 13:36 33.63578 -84.40908 1006 ft 0 kts 180°
2026-05-05 13:37 33.63543 -84.40909 1007 ft 7 kts 181°
2026-05-05 13:38 33.63503 -84.40909 1007 ft 5 kts 181°
2026-05-05 13:38 33.63472 -84.40930 1007 ft 8 kts 248°
2026-05-05 13:38 33.63471 -84.40949 1007 ft 0 kts 271°
2026-05-05 13:38 33.63472 -84.40992 1007 ft 29 kts 270°
2026-05-05 13:39 33.63470 -84.41594 1005 ft 112 kts 270°
2026-05-05 13:39 33.63469 -84.42810 1013 ft 175 kts 270°
2026-05-05 13:39 33.63471 -84.44319 1691 ft 182 kts 268°
2026-05-05 13:39 33.63468 -84.45833 2683 ft 181 kts 267°
2026-05-05 13:40 33.63462 -84.47398 3434 ft 198 kts 265°
2026-05-05 13:40 33.63449 -84.49141 3851 ft 220 kts 266°
2026-05-05 13:40 33.63441 -84.51057 4260 ft 241 kts 266°
2026-05-05 13:40 33.63435 -84.53148 4775 ft 257 kts 266°
2026-05-05 13:41 33.63436 -84.55321 5526 ft 263 kts 267°
2026-05-05 13:41 33.63439 -84.57532 6326 ft 267 kts 267°
2026-05-05 13:41 33.63443 -84.59812 7090 ft 272 kts 268°
2026-05-05 13:41 33.63431 -84.62093 7871 ft 274 kts 263°
2026-05-05 13:42 33.63012 -84.64321 8642 ft 275 kts 246°
2026-05-05 13:42 33.62017 -84.66283 9404 ft 278 kts 228°
2026-05-05 13:42 33.60539 -84.67786 10154 ft 282 kts 212°
2026-05-05 13:42 33.58770 -84.68840 10841 ft 287 kts 200°
2026-05-05 13:43 33.56809 -84.69349 11495 ft 294 kts 186°
2026-05-05 13:43 33.54743 -84.69210 12121 ft 302 kts 173°
2026-05-05 13:43 33.52652 -84.68807 12791 ft 306 kts 173°
2026-05-05 13:43 33.50535 -84.68403 13434 ft 311 kts 173°
2026-05-05 13:44 33.48374 -84.67996 14045 ft 316 kts 174°
2026-05-05 13:44 33.46181 -84.67585 14618 ft 321 kts 173°
2026-05-05 13:44 33.44017 -84.66850 15186 ft 329 kts 159°
2026-05-05 13:44 33.42040 -84.65437 15757 ft 337 kts 144°
2026-05-05 13:45 33.40359 -84.63364 15882 ft 359 kts 126°
2026-05-05 13:45 33.39051 -84.60717 16008 ft 379 kts 120°
2026-05-05 13:45 33.37708 -84.57870 16138 ft 397 kts 120°
2026-05-05 13:45 33.36323 -84.54963 16419 ft 408 kts 120°
2026-05-05 13:46 33.34912 -84.52023 16904 ft 413 kts 121°
2026-05-05 13:46 33.33471 -84.49028 17415 ft 418 kts 121°
2026-05-05 13:46 33.32009 -84.45998 17933 ft 423 kts 121°
2026-05-05 13:46 33.30529 -84.42941 18443 ft 427 kts 121°
2026-05-05 13:47 33.29013 -84.39815 18878 ft 432 kts 121°
2026-05-05 13:47 33.27499 -84.36695 19379 ft 436 kts 121°
2026-05-05 13:47 33.25970 -84.33549 19827 ft 440 kts 121°
2026-05-05 13:47 33.24426 -84.30376 20272 ft 444 kts 121°
2026-05-05 13:48 33.22869 -84.27171 20709 ft 448 kts 120°
2026-05-05 13:48 33.21304 -84.23939 21112 ft 452 kts 120°
2026-05-05 13:48 33.19720 -84.20673 21512 ft 456 kts 120°
2026-05-05 13:48 33.18123 -84.17383 21915 ft 460 kts 120°
2026-05-05 13:49 33.16513 -84.14067 22306 ft 464 kts 120°
2026-05-05 13:49 33.14887 -84.10725 22687 ft 467 kts 120°
2026-05-05 13:49 33.13244 -84.07359 23050 ft 471 kts 120°
2026-05-05 13:49 33.11585 -84.03965 23432 ft 475 kts 120°
2026-05-05 13:50 33.09850 -84.00599 23755 ft 478 kts 126°
2026-05-05 13:50 33.07742 -83.97524 24049 ft 480 kts 135°
2026-05-05 13:50 33.05266 -83.94859 24338 ft 481 kts 145°
2026-05-05 13:50 33.02531 -83.92543 24635 ft 483 kts 148°
2026-05-05 13:51 32.99770 -83.90245 24901 ft 486 kts 147°
2026-05-05 13:51 32.96991 -83.87926 25154 ft 490 kts 147°
2026-05-05 13:51 32.94183 -83.85585 25415 ft 494 kts 147°
2026-05-05 13:51 32.91368 -83.83237 25680 ft 497 kts 147°
2026-05-05 13:52 32.88528 -83.80862 25945 ft 500 kts 147°
2026-05-05 13:52 32.85675 -83.78476 26203 ft 503 kts 147°
2026-05-05 13:52 32.82801 -83.76073 26452 ft 506 kts 147°
2026-05-05 13:52 32.79908 -83.73665 26705 ft 509 kts 148°
2026-05-05 13:53 32.76960 -83.71219 26955 ft 512 kts 148°
2026-05-05 13:53 32.74028 -83.68790 27193 ft 515 kts 148°
2026-05-05 13:53 32.71082 -83.66347 27413 ft 517 kts 147°
2026-05-05 13:53 32.68128 -83.63891 27653 ft 520 kts 147°
2026-05-05 13:54 32.65187 -83.61373 27876 ft 523 kts 146°
2026-05-05 13:54 32.62270 -83.58800 28096 ft 525 kts 145°
2026-05-05 13:54 32.59343 -83.56176 28317 ft 528 kts 145°
2026-05-05 13:54 32.56414 -83.53539 28526 ft 530 kts 145°
2026-05-05 13:55 32.53464 -83.50893 28701 ft 534 kts 145°
2026-05-05 13:55 32.50483 -83.48234 28837 ft 538 kts 145°
2026-05-05 13:55 32.47483 -83.45580 29048 ft 540 kts 146°
2026-05-05 13:55 32.44460 -83.42927 29283 ft 541 kts 146°
2026-05-05 13:56 32.41437 -83.40284 29600 ft 540 kts 146°
2026-05-05 13:56 32.38417 -83.37646 29903 ft 540 kts 146°
2026-05-05 13:56 32.35392 -83.35004 30178 ft 541 kts 146°
2026-05-05 13:56 32.32368 -83.32360 30425 ft 542 kts 146°
2026-05-05 13:57 32.29332 -83.29706 30643 ft 543 kts 146°
2026-05-05 13:57 32.26296 -83.27049 30849 ft 544 kts 146°
2026-05-05 13:57 32.23248 -83.24380 31057 ft 545 kts 146°
2026-05-05 13:57 32.20202 -83.21711 31265 ft 547 kts 146°
2026-05-05 13:58 32.17140 -83.19034 31472 ft 548 kts 146°
2026-05-05 13:58 32.14077 -83.16362 31665 ft 548 kts 146°
2026-05-05 13:58 32.11003 -83.13684 31868 ft 550 kts 145°
2026-05-05 13:58 32.07915 -83.10998 32009 ft 553 kts 145°
2026-05-05 13:59 32.01709 -83.05608 32410 ft 555 kts 145°
2026-05-05 13:59 31.98594 -83.02907 32626 ft 556 kts 145°
2026-05-05 14:00 31.92354 -82.97498 33062 ft 557 kts 145°
2026-05-05 14:00 31.90247 -82.95672 33208 ft 558 kts 145°
2026-05-05 14:00 31.86055 -82.92041 33439 ft 560 kts 145°
2026-05-05 14:00 31.82918 -82.89327 33650 ft 561 kts 145°
2026-05-05 14:01 31.79773 -82.86610 33859 ft 562 kts 145°
2026-05-05 14:01 31.76637 -82.83857 34073 ft 563 kts 143°
2026-05-05 14:01 31.73557 -82.81023 34264 ft 564 kts 142°
2026-05-05 14:01 31.70516 -82.78114 34474 ft 564 kts 141°
2026-05-05 14:02 31.67504 -82.75171 34737 ft 562 kts 141°
2026-05-05 14:02 31.64504 -82.72230 34980 ft 561 kts 141°
2026-05-05 14:02 31.61497 -82.69310 35100 ft 562 kts 141°
2026-05-05 14:02 31.58464 -82.66402 35105 ft 566 kts 142°
2026-05-05 14:03 31.52300 -82.60586 35127 ft 571 kts 142°
2026-05-05 14:03 31.46078 -82.54758 35128 ft 573 kts 142°
2026-05-05 14:04 31.40872 -82.49861 35126 ft 573 kts 142°
2026-05-05 14:04 31.34667 -82.44013 35128 ft 573 kts 142°
2026-05-05 14:05 31.28464 -82.38164 35115 ft 573 kts 142°
2026-05-05 14:05 31.22251 -82.32335 35135 ft 573 kts 142°
2026-05-05 14:06 31.16020 -82.26524 35136 ft 573 kts 142°
2026-05-05 14:06 31.09798 -82.20720 35140 ft 573 kts 142°
2026-05-05 14:07 31.03573 -82.14906 35141 ft 573 kts 142°
2026-05-05 14:07 30.97351 -82.09092 35116 ft 573 kts 142°
2026-05-05 14:08 30.91129 -82.03297 35135 ft 573 kts 142°
2026-05-05 14:08 30.84896 -81.97520 35144 ft 573 kts 142°
2026-05-05 14:09 30.78660 -81.91745 35143 ft 573 kts 142°
2026-05-05 14:09 30.72382 -81.85944 35151 ft 573 kts 142°
2026-05-05 14:10 30.66140 -81.80189 35118 ft 573 kts 142°
2026-05-05 14:10 30.59449 -81.75282 35121 ft 566 kts 160°
2026-05-05 14:11 30.52210 -81.71764 35131 ft 564 kts 162°
2026-05-05 14:11 30.44944 -81.68270 35129 ft 564 kts 162°
2026-05-05 14:12 30.37708 -81.64787 35163 ft 564 kts 161°
2026-05-05 14:12 30.30456 -81.61290 35173 ft 565 kts 162°
2026-05-05 14:13 30.23192 -81.57802 35154 ft 565 kts 162°
2026-05-05 14:13 30.15931 -81.54327 35134 ft 565 kts 162°
2026-05-05 14:14 30.08623 -81.50827 35113 ft 565 kts 162°
2026-05-05 14:14 30.01367 -81.47357 35131 ft 564 kts 162°
2026-05-05 14:15 29.94116 -81.43900 35143 ft 564 kts 162°
2026-05-05 14:15 29.86858 -81.40454 35147 ft 564 kts 162°
2026-05-05 14:16 29.79606 -81.37000 35122 ft 564 kts 162°
2026-05-05 14:16 29.72362 -81.33560 35131 ft 563 kts 162°
2026-05-05 14:17 29.65115 -81.30129 35132 ft 563 kts 162°
2026-05-05 14:17 29.57869 -81.26697 35153 ft 563 kts 162°
2026-05-05 14:18 29.50623 -81.23272 35102 ft 562 kts 162°
2026-05-05 14:18 29.43339 -81.19840 35122 ft 562 kts 162°
2026-05-05 14:19 29.36110 -81.16443 35120 ft 561 kts 162°
2026-05-05 14:19 29.28891 -81.13049 35122 ft 561 kts 162°
2026-05-05 14:20 29.21789 -81.09831 35100 ft 559 kts 163°
2026-05-05 14:20 29.14521 -81.06678 35125 ft 558 kts 164°
2026-05-05 14:21 29.07262 -81.03535 35127 ft 558 kts 164°
2026-05-05 14:21 29.00011 -81.00344 35125 ft 558 kts 163°
2026-05-05 14:22 28.92786 -80.97140 35092 ft 557 kts 163°
2026-05-05 14:22 28.85560 -80.93964 35113 ft 556 kts 163°
2026-05-05 14:23 28.78292 -80.90789 35122 ft 555 kts 163°
2026-05-05 14:23 28.71083 -80.87638 35116 ft 554 kts 163°
2026-05-05 14:24 28.63862 -80.84598 35101 ft 552 kts 166°
2026-05-05 14:24 28.56590 -80.81851 35126 ft 549 kts 167°
2026-05-05 14:25 28.49323 -80.79181 35130 ft 549 kts 167°
2026-05-05 14:25 28.42076 -80.76444 35126 ft 549 kts 166°
2026-05-05 14:26 28.34847 -80.73659 35106 ft 549 kts 166°
2026-05-05 14:26 28.27620 -80.70883 35096 ft 548 kts 166°
2026-05-05 14:27 28.20390 -80.68133 35095 ft 547 kts 166°
2026-05-05 14:27 28.13122 -80.65376 35105 ft 547 kts 166°
2026-05-05 14:28 28.05903 -80.62631 35093 ft 547 kts 166°
2026-05-05 14:28 27.98684 -80.59884 35074 ft 547 kts 166°
2026-05-05 14:29 27.91468 -80.57152 35087 ft 547 kts 166°
2026-05-05 14:29 27.84237 -80.54427 35097 ft 548 kts 166°
2026-05-05 14:30 27.77016 -80.51705 35127 ft 546 kts 166°
2026-05-05 14:30 27.69825 -80.48978 35109 ft 545 kts 166°
2026-05-05 14:31 27.62668 -80.46152 35119 ft 545 kts 165°
2026-05-05 14:31 27.55536 -80.43280 35102 ft 544 kts 165°
2026-05-05 14:32 27.48403 -80.40428 35100 ft 544 kts 165°
2026-05-05 14:32 27.41264 -80.37603 35099 ft 543 kts 165°
2026-05-05 14:33 27.35284 -80.35250 35093 ft 543 kts 165°
2026-05-05 14:33 27.26988 -80.32000 35091 ft 544 kts 165°
2026-05-05 14:34 27.21008 -80.29648 35087 ft 544 kts 165°
2026-05-05 14:34 27.13875 -80.26830 35084 ft 543 kts 165°
2026-05-05 14:35 27.06740 -80.24027 35054 ft 544 kts 165°
2026-05-05 14:35 26.99590 -80.21219 35068 ft 544 kts 165°
2026-05-05 14:36 26.92443 -80.18417 35074 ft 544 kts 165°
2026-05-05 14:36 26.85286 -80.15623 35105 ft 544 kts 165°
2026-05-05 14:37 26.78153 -80.12847 35091 ft 542 kts 165°
2026-05-05 14:37 26.71278 -80.10164 35090 ft 542 kts 165°
2026-05-05 14:38 26.64115 -80.07370 35088 ft 541 kts 165°
2026-05-05 14:38 26.57014 -80.04609 35095 ft 541 kts 165°
2026-05-05 14:39 26.49894 -80.01847 35063 ft 541 kts 165°
2026-05-05 14:39 26.42778 -79.99091 35048 ft 542 kts 165°
2026-05-05 14:40 26.35593 -79.96309 35056 ft 543 kts 165°
2026-05-05 14:40 26.28447 -79.93547 35060 ft 543 kts 165°
2026-05-05 14:41 26.21299 -79.90787 35059 ft 544 kts 165°
2026-05-05 14:41 26.14151 -79.88024 35041 ft 544 kts 165°
2026-05-05 14:42 26.07008 -79.85267 35054 ft 544 kts 165°
2026-05-05 14:42 25.99847 -79.82514 35061 ft 544 kts 165°
2026-05-05 14:43 25.92691 -79.79764 35068 ft 544 kts 165°
2026-05-05 14:43 25.85546 -79.77022 35069 ft 543 kts 165°
2026-05-05 14:44 25.78415 -79.74286 35081 ft 542 kts 165°
2026-05-05 14:44 25.71294 -79.71556 35080 ft 541 kts 165°
2026-05-05 14:45 25.64132 -79.68815 35076 ft 541 kts 165°
2026-05-05 14:45 25.57024 -79.66104 35050 ft 540 kts 165°
2026-05-05 14:46 25.49917 -79.63398 35059 ft 540 kts 165°
2026-05-05 14:46 25.42817 -79.60690 35066 ft 540 kts 165°
2026-05-05 14:47 25.35706 -79.57985 35058 ft 540 kts 165°
2026-05-05 14:47 25.28606 -79.55289 35067 ft 540 kts 165°
2026-05-05 14:48 25.21507 -79.52586 35054 ft 539 kts 165°
2026-05-05 14:48 25.14404 -79.49898 35065 ft 539 kts 165°
2026-05-05 14:49 25.07309 -79.47209 35069 ft 539 kts 164°
2026-05-05 14:49 25.00211 -79.44522 35071 ft 539 kts 165°
2026-05-05 14:50 24.93062 -79.41826 35054 ft 539 kts 165°
2026-05-05 14:50 24.85981 -79.39158 35069 ft 537 kts 165°
2026-05-05 14:51 24.78916 -79.36496 35076 ft 537 kts 165°
2026-05-05 14:51 24.71846 -79.33839 35073 ft 536 kts 165°
2026-05-05 14:52 24.64792 -79.31186 35068 ft 536 kts 165°
2026-05-05 14:52 24.57735 -79.28536 35058 ft 535 kts 164°
2026-05-05 14:53 24.50684 -79.25891 35066 ft 535 kts 164°
2026-05-05 14:53 24.43638 -79.23249 35069 ft 535 kts 164°
2026-05-05 14:54 24.36590 -79.20613 35072 ft 535 kts 164°
2026-05-05 14:54 24.29548 -79.17980 35072 ft 535 kts 164°
2026-05-05 14:55 24.22498 -79.15348 35073 ft 535 kts 164°
2026-05-05 14:55 24.15454 -79.12712 35073 ft 535 kts 164°
2026-05-05 14:56 24.08359 -79.10064 35075 ft 535 kts 164°
2026-05-05 14:56 24.01261 -79.07674 35072 ft 530 kts 173°
2026-05-05 14:57 23.94011 -79.07114 35054 ft 519 kts 187°
2026-05-05 14:57 23.86786 -79.07297 35067 ft 520 kts 187°
2026-05-05 14:58 23.79546 -79.07442 35074 ft 520 kts 186°
2026-05-05 14:58 23.72315 -79.07589 35077 ft 520 kts 187°
2026-05-05 14:59 23.65082 -79.07750 35067 ft 519 kts 186°
2026-05-05 14:59 23.57865 -79.07915 35082 ft 519 kts 186°
2026-05-05 15:00 23.51817 -79.08056 35086 ft 519 kts 186°
2026-05-05 15:00 23.43386 -79.08251 35088 ft 518 kts 186°
2026-05-05 15:01 23.36168 -79.08411 35071 ft 518 kts 186°
2026-05-05 15:01 23.28970 -79.08567 35087 ft 517 kts 186°
2026-05-05 15:02 23.21782 -79.08724 35091 ft 516 kts 186°
2026-05-05 15:02 23.14603 -79.08888 35093 ft 516 kts 186°
2026-05-05 15:03 23.07430 -79.09047 35093 ft 516 kts 186°
2026-05-05 15:03 23.00265 -79.09209 35087 ft 514 kts 186°
2026-05-05 15:04 22.94323 -79.09337 35095 ft 513 kts 186°
2026-05-05 15:04 22.87186 -79.09488 35100 ft 512 kts 186°
2026-05-05 15:05 22.76504 -79.09722 35098 ft 512 kts 186°
2026-05-05 15:06 22.69388 -79.09886 35086 ft 511 kts 186°
2026-05-05 15:06 22.62233 -79.10047 35093 ft 510 kts 186°
2026-05-05 15:07 22.55140 -79.10193 35099 ft 510 kts 186°
2026-05-05 15:07 22.48045 -79.10342 35092 ft 509 kts 186°
2026-05-05 15:08 22.40962 -79.10503 35072 ft 509 kts 185°
2026-05-05 15:08 22.33877 -79.10664 35086 ft 509 kts 185°
2026-05-05 15:09 22.26799 -79.10818 35092 ft 509 kts 185°
2026-05-05 15:09 22.19723 -79.10971 35095 ft 508 kts 185°
2026-05-05 15:10 22.12645 -79.10935 35095 ft 512 kts 177°
2026-05-05 15:10 22.05608 -79.09520 35084 ft 515 kts 171°
2026-05-05 15:11 21.98596 -79.07949 35088 ft 515 kts 171°
2026-05-05 15:11 21.91584 -79.06392 35093 ft 514 kts 171°
2026-05-05 15:12 21.84576 -79.04846 35099 ft 514 kts 171°
2026-05-05 15:12 21.77560 -79.03293 35095 ft 514 kts 171°
2026-05-05 15:13 21.70503 -79.01738 35088 ft 514 kts 171°
2026-05-05 15:13 21.63498 -79.00194 35091 ft 514 kts 171°
2026-05-05 15:14 21.56489 -78.98644 35090 ft 514 kts 171°
2026-05-05 15:14 21.49485 -78.97100 35094 ft 514 kts 171°
2026-05-05 15:15 21.42480 -78.95565 35081 ft 513 kts 171°
2026-05-05 15:15 21.35492 -78.94028 35089 ft 512 kts 171°
2026-05-05 15:16 21.28516 -78.92487 35102 ft 512 kts 171°
2026-05-05 15:16 21.21550 -78.90957 35091 ft 511 kts 171°
2026-05-05 15:17 21.14581 -78.89436 35085 ft 511 kts 171°
2026-05-05 15:17 21.07621 -78.87917 35092 ft 510 kts 171°
2026-05-05 15:18 21.00658 -78.86391 35093 ft 510 kts 171°
2026-05-05 15:18 20.93703 -78.84872 35091 ft 510 kts 171°
2026-05-05 15:19 20.86701 -78.83346 35086 ft 510 kts 171°
2026-05-05 15:19 20.79746 -78.81831 35090 ft 510 kts 171°
2026-05-05 15:20 20.72800 -78.80312 35069 ft 509 kts 171°
2026-05-05 15:20 20.69325 -78.79555 34856 ft 508 kts 171°
2026-05-05 15:20 20.65858 -78.78800 34625 ft 508 kts 171°
2026-05-05 15:20 20.62397 -78.78044 34396 ft 509 kts 171°
2026-05-05 15:21 20.58927 -78.77285 34167 ft 509 kts 171°
2026-05-05 15:21 20.55459 -78.76526 33924 ft 510 kts 171°
2026-05-05 15:21 20.51976 -78.75769 33665 ft 510 kts 171°
2026-05-05 15:21 20.48496 -78.75017 33412 ft 511 kts 171°
2026-05-05 15:22 20.45016 -78.74264 33154 ft 511 kts 171°
2026-05-05 15:22 20.41528 -78.73507 32895 ft 511 kts 171°
2026-05-05 15:22 20.38049 -78.72756 32645 ft 511 kts 171°
2026-05-05 15:22 20.34562 -78.72003 32403 ft 511 kts 171°
2026-05-05 15:23 20.31082 -78.71250 32156 ft 511 kts 171°
2026-05-05 15:23 20.27595 -78.70496 31912 ft 511 kts 171°
2026-05-05 15:23 20.24107 -78.69744 31672 ft 512 kts 171°
2026-05-05 15:23 20.20620 -78.68991 31434 ft 512 kts 170°
2026-05-05 15:24 20.17127 -78.68231 31202 ft 512 kts 170°
2026-05-05 15:24 20.13635 -78.67469 30960 ft 512 kts 170°
2026-05-05 15:24 20.10143 -78.66711 30714 ft 513 kts 170°
2026-05-05 15:24 20.06651 -78.65957 30483 ft 512 kts 170°
2026-05-05 15:25 20.03152 -78.65206 30260 ft 512 kts 170°
2026-05-05 15:25 19.99655 -78.64451 30016 ft 513 kts 170°
2026-05-05 15:25 19.96186 -78.63630 29743 ft 506 kts 168°
2026-05-05 15:25 19.92770 -78.62775 29468 ft 490 kts 168°
2026-05-05 15:26 19.89503 -78.61951 29204 ft 476 kts 168°
2026-05-05 15:26 19.86320 -78.61143 28940 ft 464 kts 168°
2026-05-05 15:26 19.83211 -78.60351 28680 ft 453 kts 168°
2026-05-05 15:26 19.80181 -78.59577 28424 ft 443 kts 168°
2026-05-05 15:27 19.77219 -78.58818 28172 ft 433 kts 168°
2026-05-05 15:27 19.74300 -78.58070 27918 ft 437 kts 168°
2026-05-05 15:27 19.71261 -78.57300 27432 ft 459 kts 168°
2026-05-05 15:27 19.68131 -78.56513 26894 ft 464 kts 168°
2026-05-05 15:28 19.64999 -78.55726 26368 ft 463 kts 168°
2026-05-05 15:28 19.61832 -78.54932 25839 ft 469 kts 168°
2026-05-05 15:28 19.58660 -78.54140 25336 ft 468 kts 168°
2026-05-05 15:28 19.55503 -78.53353 24862 ft 465 kts 168°
2026-05-05 15:29 19.52367 -78.52570 24392 ft 461 kts 168°
2026-05-05 15:29 19.49221 -78.51733 23923 ft 458 kts 163°
2026-05-05 15:29 19.46231 -78.50594 23585 ft 456 kts 161°
2026-05-05 15:29 19.43260 -78.49435 23324 ft 454 kts 161°
2026-05-05 15:30 19.40299 -78.48272 23053 ft 453 kts 161°
2026-05-05 15:30 19.37351 -78.47107 22795 ft 451 kts 160°
2026-05-05 15:30 19.34422 -78.45945 22540 ft 449 kts 160°
2026-05-05 15:30 19.31498 -78.44787 22072 ft 447 kts 161°
2026-05-05 15:31 19.28595 -78.43641 21465 ft 444 kts 161°
2026-05-05 15:31 19.25711 -78.42504 20857 ft 441 kts 161°
2026-05-05 15:31 19.22849 -78.41375 20264 ft 438 kts 161°
2026-05-05 15:31 19.19997 -78.40253 19662 ft 436 kts 161°
2026-05-05 15:32 19.17162 -78.39140 19068 ft 434 kts 161°
2026-05-05 15:32 19.14342 -78.38034 18490 ft 432 kts 161°
2026-05-05 15:32 19.11532 -78.36933 17843 ft 429 kts 161°
2026-05-05 15:32 19.08740 -78.35838 17188 ft 427 kts 161°
2026-05-05 15:33 19.05961 -78.34749 16539 ft 425 kts 161°
2026-05-05 15:33 19.03198 -78.33668 15916 ft 422 kts 161°
2026-05-05 15:33 19.00503 -78.32612 15315 ft 404 kts 161°
2026-05-05 15:33 18.97937 -78.31608 14864 ft 383 kts 161°
2026-05-05 15:34 18.95472 -78.30644 14409 ft 376 kts 161°
2026-05-05 15:34 18.92988 -78.29672 13904 ft 375 kts 161°
2026-05-05 15:34 18.90545 -78.28716 13353 ft 373 kts 160°
2026-05-05 15:34 18.88124 -78.27765 12798 ft 370 kts 160°
2026-05-05 15:35 18.86527 -78.27138 12446 ft 369 kts 160°
2026-05-05 15:35 18.84133 -78.26201 11916 ft 366 kts 160°
2026-05-05 15:35 18.80992 -78.24977 11209 ft 349 kts 160°
2026-05-05 15:35 18.79507 -78.24398 10872 ft 339 kts 160°
2026-05-05 15:36 18.77340 -78.23553 10366 ft 326 kts 160°
2026-05-05 15:36 18.75249 -78.22738 9856 ft 314 kts 160°
2026-05-05 15:36 18.73232 -78.21951 9287 ft 304 kts 159°
2026-05-05 15:36 18.71277 -78.21188 8755 ft 295 kts 159°
2026-05-05 15:37 18.69377 -78.20448 8217 ft 287 kts 159°
2026-05-05 15:37 18.67532 -78.19728 7695 ft 279 kts 159°
2026-05-05 15:37 18.65722 -78.19021 7290 ft 268 kts 159°
2026-05-05 15:37 18.64008 -78.18354 6893 ft 258 kts 159°
2026-05-05 15:38 18.62336 -78.17702 6500 ft 256 kts 159°
2026-05-05 15:38 18.60668 -78.17050 6078 ft 256 kts 158°
2026-05-05 15:38 18.58998 -78.16399 5705 ft 255 kts 158°
2026-05-05 15:38 18.57347 -78.15757 5365 ft 252 kts 158°
2026-05-05 15:39 18.55733 -78.15130 5022 ft 241 kts 158°
2026-05-05 15:39 18.54189 -78.14527 4697 ft 235 kts 159°
2026-05-05 15:39 18.52662 -78.13929 4354 ft 235 kts 158°
2026-05-05 15:39 18.51134 -78.13331 4011 ft 234 kts 158°
2026-05-05 15:40 18.49604 -78.12734 3702 ft 233 kts 158°
2026-05-05 15:40 18.48103 -78.12149 3409 ft 226 kts 158°
2026-05-05 15:40 18.46665 -78.11588 3120 ft 215 kts 156°
2026-05-05 15:40 18.45430 -78.10817 3090 ft 202 kts 138°
2026-05-05 15:41 18.44534 -78.09735 3093 ft 191 kts 121°
2026-05-05 15:41 18.44003 -78.08472 3030 ft 188 kts 105°
2026-05-05 15:41 18.43848 -78.07121 2843 ft 183 kts 88°
2026-05-05 15:41 18.44068 -78.05837 2651 ft 174 kts 71°
2026-05-05 15:42 18.44535 -78.04717 2447 ft 158 kts 66°
2026-05-05 15:42 18.44977 -78.03704 2268 ft 150 kts 66°
2026-05-05 15:42 18.45413 -78.02701 2102 ft 149 kts 67°
2026-05-05 15:42 18.45841 -78.01720 1885 ft 147 kts 67°
2026-05-05 15:43 18.46267 -78.00745 1695 ft 146 kts 66°
2026-05-05 15:43 18.46690 -77.99775 1500 ft 146 kts 66°
2026-05-05 15:43 18.47115 -77.98806 1309 ft 145 kts 65°
2026-05-05 15:43 18.47536 -77.97851 1157 ft 144 kts 65°
2026-05-05 15:44 18.47950 -77.96883 978 ft 144 kts 65°
2026-05-05 15:44 18.48364 -77.95925 794 ft 143 kts 65°
2026-05-05 15:44 18.48785 -77.94973 601 ft 143 kts 66°
2026-05-05 15:44 18.49192 -77.94029 406 ft 141 kts 63°
2026-05-05 15:45 18.49597 -77.93103 238 ft 139 kts 63°
2026-05-05 15:45 18.50003 -77.92183 53 ft 135 kts 64°
2026-05-05 15:45 18.50324 -77.91446 45 ft 73 kts 66°
2026-05-05 15:45 18.50498 -77.91047 43 ft 37 kts 64°
2026-05-05 15:46 18.50526 -77.90835 45 ft 22 kts 91°
2026-05-05 15:46 18.50524 -77.90716 45 ft 10 kts 108°
2026-05-05 15:46 18.50473 -77.90701 40 ft 8 kts 203°
2026-05-05 15:46 18.50443 -77.90743 40 ft 7 kts 247°
2026-05-05 15:47 18.50419 -77.90800 45 ft 12 kts 246°
2026-05-05 15:47 18.50391 -77.90865 43 ft 15 kts 245°
2026-05-05 15:47 18.50336 -77.90990 42 ft 13 kts 246°
2026-05-05 15:47 18.50299 -77.91075 40 ft 12 kts 245°
2026-05-05 15:48 18.50266 -77.91152 39 ft 11 kts 245°
2026-05-05 15:48 18.50233 -77.91228 42 ft 15 kts 245°
2026-05-05 15:48 18.50188 -77.91331 43 ft 15 kts 245°
2026-05-05 15:48 18.50148 -77.91424 41 ft 13 kts 245°
2026-05-05 15:49 18.50112 -77.91504 43 ft 10 kts 245°
2026-05-05 15:49 18.50080 -77.91568 41 ft 9 kts 226°
2026-05-05 15:49 18.50023 -77.91542 42 ft 13 kts 95°
2026-05-05 15:49 18.50050 -77.91465 44 ft 10 kts 101°
2026-05-05 15:50 18.49997 -77.91434 44 ft 6 kts 155°
2026-05-05 15:50 18.49987 -77.91429 44 ft 0 kts 154°
2026-05-05 15:50 18.49985 -77.91428 44 ft 0 kts 155°